GFSNIL_con_mucape_000.txt.gz
CAPE
9 13 14 13 30 0 3 0 0 0 0 0 0 0 0 0 0 0 0 0 0 0
13 17 23 12 0 0 0 0 0 1 6 0 0 0 0 0 0 0 0 0 0 1
2 2 0 0 0 1 3 5 15 23 0 0 0 0 0 0 0 0 0 2 2 0
0 9 10 0 3 5 3 0 34 11 2 0 0 0 0 0 0 5 0 0 0 0
8 23 23 9 18 15 20 16 7 0 0 0 0 0 0 0 0 0 0 0 0 0
0 0 14 48 23 20 4 7 1 0 0 0 0 0 0 0 0 0 0 0 2 0
0 0 0 25 26 19 2 1 0 0 0 0 0 0 0 0 0 0 0 2 0 0
0 0 0 23 22 10 0 0 0 0 0 0 0 0 2 0 0 1 0 0 0 0
0 0 0 0 0 0 0 0 0 0 0 0 0 1 0 0 0 0 0 0 0 0
0 0 0 0 1 8 0 0 7 2 0 0 0 0 0 0 0 0 0 0 0 0
0 0 0 1 4 0 1 2 0 0 0 0 0 0 0 0 0 0 0 0 0 0
0 0 0 5 9 3 7 8 0 0 0 0 0 0 0 0 0 0 0 0 0 0
0 0 0 8 15 9 0 0 0 0 0 0 0 0 0 0 0 0 0 0 0 0
0 0 0 0 0 0 0 0 0 0 0 0 0 0 0 0 0 0 0 0 0 0

GFSNIL_con_mucape_003.txt.gz
CAPE
0 0 0 8 8 0 0 0 0 0 0 0 0 7 0 0 0 0 0 0 0 0
0 0 0 0 0 0 0 0 3 5 14 25 0 5 0 0 0 0 0 0 0 0
0 0 0 0 0 0 1 10 31 27 27 9 0 0 0 0 0 0 0 0 0 0
0 0 0 0 0 0 10 13 30 21 7 0 3 0 0 0 0 0 0 0 0 0
0 0 0 0 0 0 4 6 15 7 4 1 0 0 0 0 0 0 0 0 0 0
0 0 0 0 0 0 0 0 4 0 0 0 0 0 0 0 0 0 0 1 0 0
0 0 0 0 0 0 0 5 0 0 0 0 0 0 0 0 0 0 0 0 0 0
0 0 0 0 0 0 2 0 0 0 0 0 0 0 0 0 0 0 0 0 0 0
0 0 0 0 0 7 4 9 0 0 0 0 0 0 0 0 0 0 0 0 0 0
0 0 0 0 0 1 3 0 0 0 0 0 0 0 0 0 0 0 0 0 0 0
0 0 0 0 0 1 1 1 1 0 0 0 0 0 0 0 0 0 0 0 0 0
0 0 0 0 1 9 8 3 0 0 0 0 0 0 0 0 0 0 0 0 0 0
0 0 0 0 0 3 2 1 0 0 0 0 0 0 0 0 0 0 0 0 0 0
0 0 0 0 0 0 4 0 0 0 0 0 0 0 0 0 0 0 0 0 0 0

GFSNIL_con_mucape_006.txt.gz
CAPE
0 0 0 0 0 0 0 0 0 0 0 3 0 7 6 5 0 0 0 0 0 0
0 0 0 0 0 0 0 0 0 2 5 2 14 7 10 0 0 0 0 0 0 0
0 0 0 0 0 0 0 0 1 11 19 19 2 1 2 0 0 0 0 0 0 0
0 0 0 0 0 0 0 0 10 12 11 1 0 0 0 0 0 0 0 0 0 0
0 0 0 0 0 0 0 0 11 0 1 0 0 0 0 0 0 0 0 0 0 0
0 0 0 0 0 0 0 0 3 9 2 0 0 0 0 0 0 0 0 0 0 0
0 0 0 0 0 0 0 3 3 3 0 0 0 0 0 0 0 0 0 0 0 0
0 0 0 0 0 0 0 2 7 0 0 0 0 0 0 0 0 0 0 0 0 0
0 0 0 0 0 0 6 0 0 0 0 0 0 0 0 0 0 0 0 0 0 0
0 0 0 0 0 0 1 0 1 0 0 3 0 0 0 0 0 0 0 0 0 0
0 0 0 0 0 0 1 5 6 1 0 0 0 0 0 0 0 0 0 0 0 0
0 0 0 0 0 0 0 9 8 3 2 0 0 0 0 0 0 0 0 0 0 0
0 0 0 0 0 0 0 0 0 1 0 0 0 0 0 0 0 0 0 0 0 0
0 0 0 0 0 0 0 0 0 0 0 0 0 0 0 0 0 0 0 0 0 0

GFSNIL_con_mucape_009.txt.gz
CAPE
0 0 0 0 0 0 0 0 0 0 0 0 7 10 7 0 0 0 0 0 0 0
0 0 0 0 0 0 0 0 0 0 0 8 20 10 0 2 4 4 16 22 30 29
0 0 0 0 0 0 0 0 0 0 8 17 4 0 0 2 12 0 22 18 37 21
0 0 0 0 0 0 0 0 0 6 19 20 7 6 5 3 0 0 15 21 1 0
0 0 0 0 0 0 0 0 0 5 3 13 10 12 0 0 0 0 0 0 0 0
0 0 0 0 0 0 0 0 0 0 4 4 1 0 0 0 0 0 0 0 0 0
0 0 0 0 0 0 0 0 1 7 13 8 0 0 0 0 0 0 0 0 0 0
0 0 0 0 0 0 0 6 2 3 0 0 0 0 0 0 0 0 0 0 0 0
0 0 0 0 0 0 0 2 1 0 0 0 0 0 0 0 0 0 0 0 0 0
0 0 0 0 0 0 0 2 5 4 10 6 3 0 0 0 0 0 0 0 0 0
0 0 0 0 0 0 0 0 6 6 4 0 0 0 0 0 0 0 0 0 0 0
0 0 0 0 0 0 0 0 0 0 0 0 0 0 0 0 0 0 0 0 0 0
0 0 0 0 0 0 0 0 0 0 0 0 0 0 0 0 0 0 0 0 0 0
0 0 0 0 0 0 0 0 0 0 0 0 0 0 0 0 0 0 0 0 0 0

GFSNIL_con_mucape_012.txt.gz
CAPE
2 2 0 0 0 0 0 0 0 0 0 11 26 7 2 35 32 18 10 12 19 26
0 0 0 0 0 0 0 0 0 6 20 29 21 21 49 44 29 24 14 22 31 35
0 0 0 0 0 0 0 0 0 11 38 54 32 35 38 44 29 16 23 30 33 42
0 0 0 0 0 0 0 0 0 3 30 38 47 30 59 71 20 22 32 38 44 46
0 0 0 0 0 0 0 0 0 2 21 43 54 61 58 47 18 25 33 32 37 33
0 0 0 0 0 0 0 2 6 12 30 40 48 58 32 22 23 31 31 16 17 20
0 0 0 0 0 0 0 3 15 19 25 45 32 22 6 11 19 15 14 13 10 14
0 0 0 0 0 0 0 9 26 5 4 0 0 0 0 0 2 15 2 0 0 0
0 0 0 0 0 0 2 11 30 44 42 44 0 2 2 0 0 0 0 0 0 0
0 0 0 0 0 2 4 19 26 50 47 42 24 0 0 0 0 0 0 0 0 0
0 0 0 0 0 6 14 17 26 37 41 27 0 0 0 0 0 0 0 0 0 0
0 0 0 0 2 11 13 14 29 16 5 0 0 0 0 0 0 0 0 0 0 0
0 0 0 0 2 8 12 5 1 0 0 0 0 0 0 0 0 0 0 0 0 0
0 0 0 0 1 5 10 1 0 0 0 0 0 0 0 0 0 0 0 0 0 0

GFSNIL_con_mucape_015.txt.gz
CAPE
0 7 0 0 0 0 0 0 0 0 0 3 10 17 33 56 76 57 43 37 42 52
3 1 0 0 0 0 0 0 0 0 0 10 19 25 56 65 68 80 52 54 57 53
12 0 0 0 0 0 0 0 0 0 0 5 43 50 54 56 60 47 55 23 44 67
3 0 0 0 0 0 0 0 0 0 0 3 24 40 59 46 63 78 45 34 64 64
0 0 0 0 0 0 0 0 0 0 6 16 21 23 46 58 59 53 51 58 47 42
0 0 0 0 0 0 0 0 1 10 15 23 20 27 50 59 55 39 41 40 38 47
0 0 0 0 0 0 0 0 4 12 11 17 21 17 25 24 22 30 33 43 21 4
0 0 0 0 0 0 0 1 6 16 18 34 22 4 1 6 23 31 26 14 13 2
0 0 0 0 0 0 2 5 9 20 31 32 20 0 0 0 0 3 16 8 0 0
0 0 0 0 0 0 4 10 16 25 30 39 28 0 0 0 0 0 3 1 0 0
0 0 0 0 0 0 7 12 15 20 30 39 11 0 0 0 0 1 2 0 0 0
0 0 0 0 0 0 4 11 18 23 15 20 5 0 0 0 0 0 0 0 0 0
0 0 0 0 0 0 5 11 14 12 3 1 0 0 0 0 0 0 0 0 0 0
0 0 0 0 0 0 5 13 21 2 0 0 0 0 0 0 0 0 0 0 0 0

GFSNIL_con_mucape_018.txt.gz
CAPE
0 0 0 2 16 3 0 0 0 0 0 0 0 0 0 0 2 4 8 0 13 0
0 0 4 13 5 0 0 0 0 0 0 0 0 4 8 1 11 33 20 5 18 1
0 1 9 5 0 0 0 0 0 0 0 0 0 16 27 19 29 13 15 15 11 0
8 5 4 0 0 0 0 0 0 0 0 0 0 3 1 0 8 14 22 14 4 0
7 6 0 0 0 0 0 0 0 0 0 0 4 11 7 15 23 38 22 5 0 1
2 22 0 0 0 0 0 0 0 0 0 0 0 0 0 15 34 4 12 4 3 1
18 13 0 0 0 0 0 0 0 0 3 4 0 1 1 0 0 0 0 1 1 0
7 0 0 0 0 0 0 0 0 0 9 13 5 3 0 0 0 0 0 0 0 0
7 0 0 0 0 0 0 0 0 0 8 23 24 0 2 0 0 0 0 0 0 0
0 0 0 0 0 0 0 0 2 3 5 7 11 5 2 0 0 0 0 0 0 0
0 0 0 0 0 0 0 0 0 0 3 5 4 4 1 0 0 0 0 0 0 0
0 0 0 0 0 0 0 0 0 1 2 2 0 0 0 0 0 0 0 0 0 0
0 0 0 0 0 0 0 0 0 1 0 0 0 0 0 0 0 0 0 0 0 0
0 0 0 0 0 0 0 0 0 0 0 0 0 0 0 0 0 0 0 0 0 0

GFSNIL_con_mucape_021.txt.gz
CAPE
0 0 0 0 0 2 4 0 0 0 0 0 0 0 0 0 0 0 0 0 0 0
0 0 2 4 3 10 2 0 0 0 0 0 0 0 0 1 1 0 0 1 3 2
5 9 12 5 17 12 2 0 0 0 0 0 0 0 0 13 9 7 8 9 14 10
2 4 3 9 28 21 0 0 0 0 0 0 0 0 0 0 0 0 0 7 7 0
0 0 20 30 25 0 0 0 0 0 0 0 0 0 0 0 0 3 0 0 0 0
0 11 41 31 11 0 0 0 0 0 0 0 0 0 0 0 0 0 0 0 0 2
9 14 16 13 0 0 0 0 0 0 0 0 0 0 0 0 0 0 0 0 0 0
7 11 7 1 0 0 0 0 0 0 0 0 0 1 0 1 1 0 0 0 0 0
4 8 10 0 0 0 0 0 0 0 0 0 1 7 1 7 4 0 0 0 0 0
0 1 0 0 0 0 0 0 0 0 0 0 1 1 0 0 0 0 0 0 0 0
4 0 0 0 0 0 0 0 0 0 0 0 0 0 0 3 0 0 0 0 0 0
0 0 0 0 0 0 0 0 0 0 0 0 0 0 2 1 0 0 0 0 0 0
1 0 0 0 0 0 0 0 0 0 0 0 1 4 8 0 0 0 0 0 0 0
0 0 0 0 0 0 0 0 0 0 0 0 0 0 0 0 0 0 0 0 0 0

GFSNIL_con_mucape_024.txt.gz
CAPE
49 34 1 6 15 1 0 1 0 1 0 0 0 0 0 0 0 0 0 0 0 0
54 8 16 29 0 0 0 1 0 0 0 0 0 0 0 0 0 0 0 0 0 0
0 0 2 0 0 1 8 5 12 1 0 0 0 0 0 0 1 0 0 0 0 2
6 6 5 6 6 13 18 23 2 1 0 0 0 0 0 0 0 0 0 0 0 0
0 13 8 14 12 7 17 21 0 0 0 0 0 0 0 0 0 0 0 0 0 0
25 0 0 2 3 3 4 2 0 0 0 0 0 0 0 0 0 0 0 0 0 0
22 1 0 0 0 0 0 0 0 0 0 0 0 0 0 0 2 7 4 5 0 0
2 1 0 1 0 0 0 0 0 0 0 0 0 0 0 0 5 10 6 8 0 0
3 0 3 6 1 0 0 0 0 0 0 0 0 0 0 4 4 5 4 0 0 0
6 1 3 0 0 1 0 0 0 0 0 0 0 0 0 3 1 6 3 0 0 0
2 3 4 1 6 0 0 0 0 0 0 0 0 0 0 0 4 4 1 0 0 0
6 7 0 0 0 0 0 0 0 0 0 0 0 0 0 4 5 3 0 0 0 0
4 0 0 0 0 0 0 0 0 0 0 0 0 0 0 0 3 0 0 0 0 0
1 0 0 0 0 0 0 0 0 0 0 0 0 0 0 3 6 1 0 0 0 0

GFSNIL_con_mucape_027.txt.gz
CAPE
472 274 49 47 61 39 11 22 5 2 0 4 0 0 0 0 0 0 0 0 0 0
57 69 51 61 68 42 21 13 11 0 0 0 0 0 0 0 0 0 0 0 0 0
14 36 73 54 44 39 41 10 1 5 4 3 3 0 0 0 0 0 0 0 0 0
74 92 16 19 23 18 10 5 2 1 0 0 5 0 0 0 0 0 0 0 0 0
50 29 49 26 12 16 15 4 3 0 0 0 0 0 0 0 0 0 0 0 0 0
30 44 34 7 3 0 0 0 0 0 0 0 0 0 0 0 0 0 0 0 0 0
51 41 26 6 4 3 3 3 0 0 0 0 0 0 0 0 0 0 0 0 0 0
45 44 26 14 3 4 2 2 0 0 0 0 0 0 0 0 0 0 3 4 4 0
44 36 19 20 15 6 9 8 0 0 0 0 0 0 0 0 0 0 4 7 4 0
29 23 19 15 14 12 7 3 0 0 0 0 0 0 0 0 0 0 7 4 1 0
46 18 15 19 10 1 0 0 0 0 0 0 0 0 0 0 0 1 2 0 0 0
24 18 11 19 18 4 0 0 0 0 0 0 0 0 0 0 0 0 0 0 0 0
22 25 12 64 33 0 0 0 0 0 0 0 0 0 0 0 0 0 0 1 0 0
35 24 6 0 0 0 0 0 0 0 0 0 0 0 0 0 0 1 6 0 0 0

GFSNIL_con_mucape_033.txt.gz
CAPE
279 252 213 198 210 265 46 27 13 18 46 72 32 15 3 0 0 0 0 0 0 0
311 245 235 315 237 89 63 37 34 48 53 25 38 30 10 0 0 0 0 0 0 0
345 338 321 317 166 121 135 69 58 63 69 68 40 13 9 4 0 0 0 0 0 0
565 517 481 420 198 134 72 58 44 85 45 24 26 14 1 0 6 0 0 0 0 0
575 503 492 360 135 80 70 55 85 50 26 9 4 6 6 5 0 0 0 0 0 0
440 424 319 181 66 59 55 45 24 12 17 15 5 5 1 0 0 0 0 0 0 0
314 290 107 58 49 33 31 38 36 20 10 1 6 9 8 0 0 0 0 0 0 0
167 73 71 52 50 34 49 40 17 11 10 0 1 0 0 0 0 0 0 0 0 0
121 89 64 86 50 61 46 18 4 1 2 3 0 0 0 0 0 0 0 0 0 0
0 21 58 73 77 68 13 6 8 2 0 0 0 0 0 0 0 0 0 0 0 0
0 6 11 34 48 63 9 41 20 2 0 0 0 0 0 0 0 0 0 0 0 0
0 0 2 17 15 9 1 0 0 0 0 0 0 0 0 0 0 0 0 0 0 0
0 0 0 0 0 0 0 0 0 0 0 0 0 0 0 0 0 0 0 0 0 0
0 0 0 0 0 0 0 0 0 0 0 0 0 0 0 0 0 0 0 0 0 0

GFSNIL_con_mucape_036.txt.gz
CAPE
314 370 148 138 173 373 334 143 119 83 41 9 36 32 13 11 0 0 0 0 0 0
148 143 224 329 352 457 199 140 49 36 39 44 16 16 29 9 3 0 0 0 0 0
277 326 342 340 370 288 210 139 51 61 71 48 49 18 8 0 0 0 0 0 0 0
516 486 339 251 294 173 188 106 58 83 79 48 26 17 15 0 0 1 0 0 0 0
528 357 186 234 84 123 92 93 72 64 66 57 25 0 4 1 8 3 2 0 0 0
242 157 212 209 115 72 84 53 50 50 35 10 2 2 0 0 2 0 0 0 0 0
229 151 198 169 97 76 45 39 49 46 24 7 0 6 8 2 0 0 0 0 0 0
295 218 156 72 38 24 22 27 22 35 13 31 0 0 3 0 0 0 0 0 0 0
13 40 70 51 70 75 62 63 34 8 4 0 0 20 0 0 0 0 0 0 0 0
0 0 0 0 2 5 27 23 25 25 15 0 0 0 0 0 0 0 0 0 0 2
0 0 0 0 1 4 5 7 11 0 1 0 0 0 0 0 0 0 0 0 0 0
0 0 0 0 0 0 1 0 0 0 0 0 0 0 0 0 0 0 0 0 0 0
0 0 0 0 0 0 0 0 0 0 0 0 0 0 0 0 0 0 0 0 0 0
0 0 0 0 0 0 0 0 0 0 0 0 0 0 0 0 0 0 0 0 2 16

GFSNIL_con_mucape_039.txt.gz
CAPE
274 200 529 886 271 102 74 148 161 219 199 65 25 9 27 38 43 1 3 0 5 0
542 477 755 501 289 128 190 207 269 159 80 59 28 42 42 39 9 6 0 1 0 0
499 721 690 553 266 190 252 266 292 148 72 85 49 25 30 13 7 9 5 1 0 1
335 392 444 416 271 192 172 164 108 66 63 75 11 9 37 16 12 4 0 0 0 0
773 611 542 674 542 151 69 51 7 31 37 59 36 8 19 17 12 7 0 6 0 0
1142 1093 1009 643 377 157 80 44 37 33 44 35 29 30 25 15 6 0 2 0 0 0
789 849 438 217 95 111 97 61 83 49 36 53 26 34 25 10 19 0 0 0 0 0
275 239 243 200 177 125 71 48 55 54 52 27 29 41 4 5 0 0 0 0 0 0
127 33 28 55 81 52 31 21 50 53 41 19 0 4 0 0 0 0 0 0 0 0
6 0 0 0 0 0 3 4 5 7 2 16 4 8 0 0 0 0 0 0 0 20
0 0 0 0 0 0 0 0 1 3 5 7 3 0 0 0 0 0 0 15 7 9
0 0 0 0 0 0 0 0 0 0 0 0 0 0 0 0 0 0 0 0 0 2
0 0 0 0 0 0 0 0 0 0 0 0 0 0 0 0 0 0 0 0 0 3
0 0 0 0 0 0 0 0 0 0 0 0 0 0 0 0 0 0 0 0 0 0

GFSNIL_con_mucape_042.txt.gz
CAPE
839 613 501 419 295 230 189 80 90 60 127 151 97 51 17 56 15 20 23 25 19 0
770 717 594 396 331 248 242 126 103 98 159 222 55 89 56 15 25 0 14 48 12 8
812 623 464 359 517 424 257 275 161 128 72 140 74 157 62 42 46 36 4 11 6 1
726 468 539 676 630 478 311 184 133 138 122 85 90 31 81 50 29 23 23 7 0 8
645 296 362 413 409 376 302 229 241 99 21 11 12 29 63 48 47 18 6 11 0 0
813 534 450 503 500 392 456 410 398 29 14 19 15 33 58 26 58 48 41 11 0 0
608 728 602 912 711 518 388 312 291 21 22 27 40 55 61 15 48 12 1 0 0 0
813 689 802 879 585 441 281 104 89 117 67 43 60 63 32 13 0 6 6 0 0 0
677 521 275 207 127 70 88 97 39 13 0 12 21 12 11 10 7 1 2 0 0 0
242 136 47 23 0 0 0 0 0 0 2 2 5 13 14 14 6 1 0 0 0 0
14 2 0 0 0 0 0 0 0 2 2 3 2 2 0 0 0 0 0 0 0 0
0 0 0 0 0 0 0 0 0 0 0 0 0 0 0 0 0 0 0 0 0 0
0 0 0 0 0 0 0 0 0 0 0 0 0 0 0 0 0 0 0 0 0 0
0 0 0 0 0 0 0 0 0 0 0 0 0 0 0 0 0 0 0 0 0 0

GFSNIL_con_mucape_045.txt.gz
CAPE
80 90 95 156 216 179 150 124 55 149 91 53 41 72 71 130 69 27 44 11 13 4
248 307 302 238 292 248 203 164 128 158 133 103 49 116 169 4 51 34 37 36 19 16
451 362 447 357 356 351 271 175 180 187 176 125 102 117 126 115 42 55 31 38 38 28
606 545 425 476 546 463 268 168 221 219 244 161 143 138 197 117 45 53 34 16 1 29
583 614 347 478 555 431 454 436 581 368 321 285 193 94 69 69 39 47 16 1 9 0
694 639 537 429 565 610 476 432 579 403 370 190 58 12 23 33 31 6 14 17 1 2
815 628 685 562 418 277 285 490 351 427 240 170 87 74 33 17 10 37 16 8 8 0
1015 842 491 401 419 444 330 291 436 203 128 90 49 35 10 12 2 23 0 15 1 0
1065 699 512 553 548 505 336 326 249 264 6 11 8 1 16 11 9 15 6 1 3 0
786 719 572 476 433 309 189 41 4 3 2 1 0 1 6 4 6 11 16 5 0 0
583 519 409 117 4 0 0 0 0 0 0 1 2 5 4 6 4 0 0 0 0 0
189 21 3 0 0 0 0 0 0 0 0 0 1 0 0 0 0 0 0 0 0 0
0 0 0 0 0 0 0 0 0 0 0 0 0 0 0 0 0 0 0 0 0 0
0 0 0 0 0 0 0 0 0 0 0 0 0 0 0 0 0 0 0 0 0 0

GFSNIL_con_mucape_048.txt.gz
CAPE
0 15 13 7 4 0 13 43 164 207 149 110 63 68 52 28 26 44 50 19 31 14
20 28 55 117 225 31 53 134 145 229 188 131 115 78 52 42 64 96 66 50 19 79
18 35 54 69 140 184 76 177 163 135 85 78 117 89 115 54 54 86 56 39 39 24
12 39 100 105 107 170 215 266 320 261 227 148 119 133 249 64 167 36 17 42 42 20
130 174 169 168 188 269 185 317 257 263 232 168 219 215 160 124 59 34 9 21 20 5
147 304 327 311 302 221 81 367 257 144 245 330 316 171 65 66 38 21 25 20 1 16
299 393 447 403 353 136 75 293 274 274 244 271 253 147 127 150 30 35 12 7 5 3
388 485 537 528 536 537 520 394 345 308 217 152 148 98 134 50 35 9 2 4 0 18
437 543 677 579 462 438 438 225 206 274 213 289 20 26 32 5 9 2 0 5 10 4
716 691 597 401 364 440 482 462 362 314 169 121 9 8 9 2 5 3 11 5 6 9
713 588 543 539 447 355 191 124 169 83 5 5 6 5 5 5 6 5 9 10 3 0
459 462 328 276 138 160 112 2 0 0 0 1 3 0 0 0 1 2 0 0 0 0
245 190 161 178 31 0 0 0 0 0 0 0 0 0 0 0 0 0 0 0 0 0
96 53 4 0 0 0 0 0 0 0 0 0 0 0 0 0 0 0 0 0 0 0

GFSNIL_con_mucape_051.txt.gz
CAPE
0 0 0 0 0 0 0 0 0 11 12 43 56 90 29 85 81 42 55 84 34 46
0 0 6 1 2 2 5 0 3 6 23 21 66 99 52 59 55 61 59 43 23 28
0 0 8 4 24 26 27 1 44 105 71 70 97 104 116 73 70 53 113 43 17 5
0 0 0 0 0 1 26 42 55 104 52 136 158 185 94 118 58 148 65 7 23 5
24 1 0 0 3 17 39 57 79 45 121 97 124 146 113 98 105 188 64 22 26 18
98 48 30 29 21 19 44 86 64 51 135 187 205 140 104 128 163 147 65 75 30 45
172 118 124 77 32 76 113 181 165 82 255 210 259 89 237 219 209 64 13 38 20 34
221 226 173 167 173 253 272 286 297 74 141 326 252 232 210 121 184 17 35 39 15 8
341 361 287 235 301 342 433 506 439 420 117 282 246 255 183 46 27 2 7 6 1 7
468 469 372 292 331 251 329 414 849 482 371 295 159 134 136 58 31 3 4 8 9 5
523 448 406 486 434 504 422 357 266 271 216 207 154 72 25 8 3 9 7 10 7 10
623 680 630 422 345 374 211 283 398 166 175 154 66 25 4 7 6 5 5 6 3 4
507 352 329 337 407 418 213 183 82 102 54 4 4 3 5 2 3 0 0 3 3 0
179 260 268 230 224 243 158 76 30 0 3 0 0 0 0 0 0 0 0 0 0 0

GFSNIL_con_mucape_054.txt.gz
CAPE
0 0 0 0 0 0 0 0 0 0 0 0 0 13 23 56 69 34 56 36 54 55
0 0 0 0 0 0 0 0 0 0 1 4 3 10 19 15 60 19 4 43 46 36
0 0 0 0 0 0 0 0 0 0 0 0 5 12 13 18 50 75 49 78 78 64
0 0 0 0 0 0 9 6 13 2 0 5 15 73 75 37 49 78 111 102 82 112
12 0 0 0 0 0 0 0 2 6 23 41 61 86 95 79 141 110 91 68 73 73
108 41 14 14 2 1 2 4 0 0 5 30 56 2 14 47 106 138 110 134 118 81
218 207 161 85 10 2 4 0 0 22 32 29 46 22 25 73 149 114 104 143 325 111
209 199 198 185 128 62 81 11 22 39 51 64 101 147 131 124 254 187 144 200 131 42
106 128 113 99 168 167 123 119 131 127 158 208 225 172 192 159 194 231 205 181 68 37
88 156 123 98 222 249 216 190 173 171 344 426 295 261 182 237 236 221 145 91 43 27
160 157 158 253 304 243 253 215 382 554 515 588 331 316 250 259 149 117 101 37 55 12
225 281 288 271 268 283 651 463 250 196 189 210 245 280 218 117 66 57 60 17 10 2
500 514 448 365 469 384 548 374 405 107 112 122 142 166 62 42 61 13 5 4 5 4
650 502 371 300 248 155 139 152 125 146 117 133 107 50 15 3 2 3 4 0 0 0

GFSNIL_con_mucape_057.txt.gz
CAPE
0 0 0 3 0 1 6 3 5 4 6 20 18 15 32 88 66 17 5 36 67 13
0 0 0 0 6 0 1 0 1 0 3 5 0 3 8 80 40 9 1 24 63 0
0 0 0 0 0 0 0 0 0 0 0 0 0 0 6 59 35 5 2 0 8 25
0 0 0 0 0 0 0 0 0 0 0 0 0 2 38 42 13 1 30 22 40 53
0 0 0 0 0 0 0 0 0 0 0 0 0 0 6 0 0 20 73 65 53 62
12 7 0 0 0 0 0 0 2 6 6 0 0 6 4 16 43 38 48 36 43 53
91 65 24 31 15 21 13 2 0 0 0 3 0 0 7 26 11 9 17 25 66 62
221 220 213 199 170 161 132 11 3 1 1 12 4 16 30 21 30 42 79 26 37 61
123 147 155 148 116 78 76 96 124 50 19 33 9 38 44 62 79 69 103 30 58 87
34 40 56 52 45 66 95 109 179 213 136 84 89 83 75 64 121 86 188 91 138 164
37 38 30 39 93 143 160 217 203 209 169 125 113 182 143 110 166 153 124 193 112 167
98 113 116 169 222 263 234 155 105 203 284 422 224 165 93 101 121 179 111 134 179 96
119 147 182 195 264 335 185 244 175 184 167 184 168 135 48 65 171 112 123 69 41 29
164 229 300 260 356 307 258 174 120 110 119 93 108 40 58 47 96 81 89 91 4 7

GFSNIL_con_mucape_060.txt.gz
CAPE
26 14 0 2 7 0 0 16 0 0 84 89 49 75 198 162 141 186 235 272 320 254
24 24 18 1 0 2 2 4 8 5 6 80 80 97 104 176 96 244 288 241 278 329
19 18 25 37 23 8 23 17 2 4 13 23 34 46 60 127 137 237 335 274 218 232
8 11 26 21 30 22 25 9 8 7 9 15 26 33 84 70 61 151 264 376 370 187
5 7 9 11 7 36 30 39 18 20 24 17 30 78 84 132 27 154 276 285 175 78
5 6 8 3 3 8 9 14 11 18 33 55 57 47 32 38 99 228 75 24 34 1
48 33 16 1 3 8 2 0 5 15 14 10 18 6 30 27 77 27 0 6 5 1
140 114 65 57 41 10 0 18 4 2 5 13 9 6 71 25 24 0 1 0 3 5
21 68 141 163 153 122 111 119 105 91 84 67 0 0 3 0 180 7 1 6 19 54
19 57 147 166 165 153 142 117 98 82 89 85 109 86 94 88 22 7 13 35 14 53
66 58 55 70 73 69 83 89 148 169 169 165 149 134 138 119 61 53 88 108 53 65
129 92 59 44 22 31 70 148 210 237 230 192 117 210 215 119 213 127 116 147 178 123
181 139 145 149 119 104 136 190 227 177 242 241 155 145 159 116 137 131 132 117 130 159
136 156 170 143 143 165 211 272 273 250 175 161 149 167 230 148 152 147 82 40 93 160

GFSNIL_con_mucape_063.txt.gz
CAPE
0 0 0 4 4 3 1 21 70 164 148 156 115 81 170 187 183 197 295 380 425 336
0 0 0 1 5 2 10 55 95 93 124 136 160 178 136 78 53 134 96 252 290 315
20 34 8 12 23 1 2 82 71 100 59 55 38 41 114 73 51 94 163 168 219 276
15 34 32 26 63 31 38 43 37 1 10 24 22 36 44 93 106 112 154 230 267 191
97 96 101 168 154 270 106 46 68 94 2 7 12 32 37 44 61 132 119 132 175 157
362 383 433 443 289 301 305 216 110 93 89 73 50 78 64 54 87 121 133 149 170 185
265 252 327 289 288 262 267 213 104 42 72 159 130 133 150 144 168 150 127 164 187 201
294 248 183 271 248 223 213 196 198 224 238 244 209 149 219 188 210 210 159 81 137 72
240 205 249 233 257 253 257 210 223 153 154 181 86 0 3 12 234 121 111 65 63 4
382 278 286 258 152 194 221 221 201 175 175 162 181 55 53 48 63 77 216 60 1 4
455 423 349 250 183 196 214 236 202 195 161 164 166 56 70 89 79 61 73 70 59 19
433 284 341 372 385 336 307 279 310 254 185 112 180 107 115 88 85 91 156 216 178 237
401 334 320 420 500 478 434 357 210 97 78 85 140 170 166 132 171 165 225 250 183 133
293 409 387 496 312 248 142 124 123 122 97 114 154 83 138 129 154 112 124 218 158 181

GFSNIL_con_mucape_066.txt.gz
CAPE
0 0 0 3 4 6 1 2 2 2 3 26 30 46 81 52 24 2 0 52 84 89
0 0 0 0 0 13 3 4 4 1 5 20 41 40 14 14 8 1 5 3 63 67
3 4 0 0 0 0 4 4 10 9 18 17 32 37 26 21 2 8 12 21 26 66
3 3 2 0 3 3 0 0 0 1 0 19 38 35 12 0 3 7 4 4 26 38
6 7 44 10 1 2 0 0 0 0 0 1 0 9 13 11 15 15 4 0 14 15
12 19 18 42 7 5 5 0 0 0 0 0 0 0 0 0 0 0 0 0 0 0
24 14 25 28 61 18 47 18 0 0 0 0 0 0 0 0 0 0 0 0 0 3
116 111 86 56 49 55 50 54 42 4 0 1 2 1 0 0 0 0 0 0 0 0
71 151 125 122 167 164 129 62 61 43 36 3 0 7 6 0 1 3 7 3 2 7
173 103 152 150 131 125 105 79 68 59 62 45 55 66 40 44 25 33 63 58 48 28
347 217 152 117 107 124 115 112 102 84 59 69 83 66 80 78 56 44 41 39 38 40
377 300 274 162 127 127 91 98 93 94 72 52 60 42 86 100 84 62 41 49 35 20
104 353 291 261 214 166 115 79 150 77 68 99 124 71 89 71 60 224 84 76 96 39
16 187 408 318 243 231 201 158 153 277 162 158 131 113 94 79 84 61 58 58 86 48

GFSNIL_con_mucape_069.txt.gz
CAPE
0 0 0 0 0 7 13 0 8 7 23 24 39 43 69 72 62 44 44 38 22 39
0 0 0 0 0 0 1 10 10 6 7 17 28 33 34 50 48 45 31 1 11 30
0 0 0 0 0 0 0 2 2 16 10 8 12 14 31 26 31 21 22 0 2 9
2 0 0 0 0 0 0 0 0 6 2 11 12 13 11 5 2 9 6 0 2 13
2 0 0 0 5 1 0 0 0 0 0 0 0 0 0 0 4 0 4 0 0 0
0 0 2 8 14 3 4 0 0 0 0 0 0 0 0 0 0 0 0 0 0 0
0 2 0 1 8 26 25 7 0 0 0 0 0 0 0 0 0 0 0 0 0 0
166 85 17 11 0 8 34 20 1 0 0 0 0 0 0 0 0 0 0 0 0 0
193 168 119 71 53 14 3 13 31 24 3 0 8 0 0 12 5 0 0 0 0 0
122 220 208 140 105 67 43 26 27 36 44 46 47 36 17 12 3 3 1 3 10 16
245 159 126 187 187 174 152 157 154 128 79 82 80 76 68 71 58 37 69 61 81 35
16 261 277 191 184 226 161 121 132 157 139 139 163 103 124 148 131 299 106 118 91 102
0 0 44 252 254 244 219 185 152 156 155 187 171 137 129 121 163 150 194 161 201 111
0 0 0 0 138 307 260 256 267 205 196 251 208 151 130 155 184 169 79 78 100 90

GFSNIL_con_mucape_072.txt.gz
CAPE
0 0 0 0 0 0 0 0 7 8 6 7 20 1 6 22 11 48 63 72 65 59
3 0 0 0 0 0 5 10 3 2 17 13 13 25 24 69 77 63 79 75 83 81
2 4 0 0 0 0 0 0 7 21 22 15 3 30 40 27 35 48 51 57 58 27
0 2 2 0 0 0 0 0 0 12 15 11 17 18 7 17 15 17 22 38 42 10
0 0 2 2 0 0 1 0 0 0 1 6 5 12 16 18 20 17 15 9 5 10
0 0 0 0 0 1 0 0 0 0 0 0 0 0 2 7 1 0 3 5 4 3
74 50 17 0 0 0 3 3 3 5 1 0 0 0 0 0 0 0 0 0 0 0
110 71 88 65 52 8 0 1 3 4 4 3 2 0 0 0 0 0 0 0 0 0
87 94 78 86 81 85 76 43 8 1 7 22 12 1 0 0 6 7 2 0 0 0
121 105 79 97 100 112 129 106 101 102 59 29 26 29 6 5 4 22 61 18 5 2
2 51 117 161 173 114 123 131 133 136 100 90 103 88 81 59 42 33 130 115 115 47
0 0 0 25 84 176 177 158 153 150 139 116 142 96 125 130 114 94 110 82 46 76
0 0 0 0 0 0 7 153 232 132 153 159 169 157 182 193 230 252 196 157 96 56
0 0 0 0 0 0 0 17 117 170 167 225 189 259 183 167 215 224 232 197 178 112

GFSNIL_con_mucape_075.txt.gz
CAPE
0 0 0 0 0 0 0 17 5 6 14 10 8 7 40 47 55 31 33 13 9 26
0 0 0 0 0 7 8 1 4 19 10 14 40 26 15 22 15 21 27 114 2 3
0 0 0 0 0 0 0 0 0 8 10 13 27 19 16 14 17 29 2 0 0 5
0 0 0 0 0 0 0 0 0 9 4 18 28 14 17 20 10 1 0 19 16 30
0 0 0 1 0 0 0 0 0 0 3 1 0 5 6 12 13 20 11 7 37 40
0 0 0 1 3 0 0 0 0 0 0 0 0 4 3 12 11 16 13 4 18 21
61 57 41 18 5 0 0 1 1 1 0 0 0 0 0 0 0 2 4 6 5 5
98 100 113 95 85 80 59 39 18 2 2 6 4 5 0 0 0 0 0 0 0 0
76 83 88 92 70 87 82 96 88 83 69 50 21 1 2 2 0 0 0 0 0 0
17 43 74 93 93 105 86 79 76 83 81 108 112 95 62 57 12 7 7 2 1 10
0 0 0 0 1 8 27 37 103 119 83 59 74 55 90 85 87 155 74 32 14 49
0 0 0 0 0 0 9 29 58 58 46 51 51 44 57 85 128 150 144 290 210 81
0 0 0 0 0 0 0 0 0 0 30 82 90 80 107 122 193 262 185 182 159 61
0 0 0 0 0 0 0 0 0 0 0 6 13 40 143 166 169 194 240 207 130 40

GFSNIL_con_mucape_078.txt.gz
CAPE
0 0 0 0 0 2 1 9 9 14 11 26 0 3 0 1 0 52 50 63 49 48
0 0 0 0 0 0 0 4 31 14 5 7 11 23 17 2 0 21 28 44 33 46
3 0 0 0 0 0 0 0 1 8 10 10 30 21 15 4 6 28 7 34 67 23
5 4 0 0 0 0 0 1 3 0 14 16 22 30 34 48 14 4 22 13 13 21
2 3 0 0 0 0 0 0 0 0 0 10 10 28 17 12 15 25 33 19 9 23
1 2 0 0 0 0 0 0 0 0 0 0 0 0 7 11 14 23 10 13 16 22
42 38 34 21 6 0 0 0 0 0 0 0 0 0 0 0 0 4 4 2 5 17
104 104 95 86 79 69 53 28 20 4 0 0 6 3 7 5 7 0 0 0 0 0
106 89 64 75 80 77 73 84 55 32 23 24 95 24 5 1 0 0 4 10 0 0
2 11 11 18 47 63 52 68 86 68 81 77 17 5 14 18 25 39 80 45 12 10
0 0 1 4 1 0 0 3 7 7 15 27 4 6 10 13 23 51 55 132 151 59
0 0 0 0 0 0 0 0 0 5 41 84 21 30 9 19 31 50 50 28 28 56
0 0 0 0 0 0 0 0 0 0 0 2 0 9 11 2 13 59 76 110 107 57
0 0 0 0 0 0 0 0 0 0 0 4 3 3 2 3 7 9 63 69 73 98

GFSNIL_con_mucape_084.txt.gz
CAPE
14 24 19 3 10 9 13 11 11 3 9 32 32 53 31 0 4 50 126 109 139 138
12 14 7 1 4 33 51 47 6 0 0 2 30 9 4 1 5 1 64 167 177 111
8 11 6 5 25 26 30 27 24 4 13 0 8 4 1 1 0 0 0 0 0 17
6 7 10 2 0 21 28 7 31 2 6 3 0 1 9 3 3 6 3 0 1 2
18 14 4 0 11 29 33 31 31 19 0 1 16 2 6 1 4 13 1 3 0 0
16 1 3 9 30 19 0 13 21 22 38 10 2 4 17 10 6 14 4 1 2 7
3 3 5 4 25 7 4 3 5 3 6 6 10 7 17 13 29 20 26 7 12 16
3 3 4 10 18 31 30 24 23 17 1 4 0 0 0 0 0 6 14 6 54 69
3 2 3 0 4 12 4 7 0 0 4 0 0 0 0 0 1 32 7 15 11 12
22 28 38 50 64 54 38 35 72 19 9 4 2 2 0 0 1 5 2 6 9 9
62 32 34 66 44 76 102 45 96 66 52 56 89 43 47 35 34 22 24 32 27 30
6 0 2 2 6 9 10 20 26 5 2 6 7 12 2 2 9 25 42 34 45 48
0 0 0 0 2 1 5 0 0 0 0 0 0 2 2 1 2 4 3 5 14 15
0 0 0 0 0 0 0 0 0 0 0 0 0 0 0 0 0 0 0 1 2 1

GFSNIL_con_mucape_087.txt.gz
CAPE
215 114 62 216 29 2 0 0 5 6 5 4 12 34 42 11 35 75 128 163 155 132
194 69 60 148 94 48 11 2 4 5 0 4 6 12 12 8 9 20 94 128 90 124
86 37 54 75 71 97 82 17 17 3 4 3 7 9 33 44 26 1 2 36 80 118
50 49 44 35 43 24 46 30 49 23 0 6 0 6 3 6 1 0 0 2 0 6
99 50 10 52 10 8 18 27 4 46 3 0 10 0 0 1 3 4 1 5 8 5
27 160 5 5 3 13 19 24 37 27 7 3 4 2 1 1 3 5 3 2 8 9
62 30 8 2 7 3 7 6 10 9 29 4 4 9 0 0 4 1 8 2 3 7
52 29 6 2 3 1 2 3 5 6 11 5 4 5 1 6 9 15 5 18 15 7
41 5 2 4 5 4 2 3 3 2 5 5 4 5 3 8 56 8 7 9 20 12
5 5 8 8 5 11 4 4 0 0 0 0 0 0 0 0 2 5 14 4 5 7
8 10 7 3 6 10 22 56 76 58 76 27 26 18 24 12 10 9 12 18 36 39
22 15 19 44 54 66 91 91 125 155 150 159 167 68 44 35 58 66 60 51 86 69
42 50 24 10 37 24 7 10 10 23 21 5 13 7 4 4 5 13 11 36 25 12
0 0 3 1 0 0 0 10 0 3 0 0 0 0 0 0 0 0 0 0 0 0

GFSNIL_con_mucape_090.txt.gz
CAPE
758 380 291 302 98 34 2 0 0 0 8 23 1 23 6 32 21 32 6 19 42 63
604 286 234 261 69 50 23 0 0 0 0 0 1 17 9 7 8 15 38 8 44 83
472 199 210 164 46 60 53 0 5 0 0 1 2 0 0 19 33 7 21 36 44 62
305 180 86 143 133 100 61 15 3 3 2 0 6 2 4 9 28 18 28 9 29 0
217 78 165 153 84 48 57 25 13 2 4 1 7 1 7 22 29 21 12 24 0 1
208 157 152 49 49 142 37 13 14 21 1 8 4 12 6 7 2 0 0 0 0 0
106 89 159 111 73 8 9 10 12 21 5 6 7 10 7 2 8 5 4 7 8 7
33 43 68 55 29 30 15 2 6 6 3 2 2 5 9 1 4 9 5 7 14 14
38 32 21 19 29 16 3 5 4 3 2 5 4 3 2 2 5 4 2 5 8 25
65 55 29 6 4 5 3 4 1 1 6 7 7 3 1 1 5 10 9 6 18 21
93 22 9 10 7 5 4 3 5 3 1 2 2 3 2 2 2 6 8 12 13 10
148 48 10 12 11 9 7 8 0 6 9 18 30 26 22 24 18 14 23 9 17 33
11 40 12 12 22 14 15 24 38 90 80 88 106 100 67 33 33 38 30 35 26 23
1 2 13 18 16 20 3 34 29 55 18 1 17 18 1 0 2 2 2 2 0 1

GFSNIL_con_mucape_093.txt.gz
CAPE
1493 1017 521 371 236 187 46 20 38 10 3 3 4 88 51 59 42 51 16 26 4 16
1127 809 507 375 234 87 33 52 0 0 0 0 0 0 1 34 23 38 17 23 15 16
1041 827 638 369 199 86 55 6 0 2 0 0 0 1 3 44 32 49 17 29 28 4
1242 838 514 277 166 60 71 25 2 1 0 0 9 7 10 9 14 35 23 28 22 0
884 947 427 210 130 105 70 30 19 2 4 0 1 11 7 1 0 12 1 6 25 35
1023 783 213 279 217 247 129 66 24 6 3 1 4 13 13 18 0 1 10 21 0 35
828 352 131 218 70 161 76 47 23 4 4 3 8 7 11 16 7 18 10 5 10 9
310 116 34 99 38 52 111 38 30 4 9 3 5 8 11 10 14 5 2 1 0 0
141 139 5 8 15 47 47 23 3 5 5 7 5 2 0 8 23 5 55 0 5 1
185 145 55 4 9 9 34 22 10 3 4 5 5 4 4 6 1 3 4 3 9 2
49 119 130 49 5 78 38 6 6 7 5 5 4 4 1 3 5 4 13 15 17 14
45 30 73 101 5 10 15 11 12 4 5 5 7 2 3 9 9 15 10 13 14 13
23 0 23 25 2 16 13 8 10 8 15 7 6 13 8 25 24 16 6 12 22 12
0 0 0 1 2 7 32 38 14 14 18 33 45 42 46 11 0 30 35 7 0 1

GFSNIL_con_mucape_096.txt.gz
CAPE
1541 1413 1196 614 417 251 179 133 152 209 214 158 102 46 45 53 88 37 56 66 48 5
1166 1061 803 718 431 276 292 301 235 117 82 21 30 17 74 56 54 53 16 1 39 22
1111 898 866 791 380 424 397 128 79 40 11 21 3 1 0 7 29 41 22 18 19 38
892 820 663 502 387 357 162 7 39 23 17 11 2 4 4 9 7 50 12 4 31 35
618 569 906 592 387 293 84 28 73 36 6 1 0 1 12 9 2 4 18 5 11 22
556 617 604 425 217 76 57 73 43 30 2 3 1 0 22 25 9 12 13 29 17 30
608 554 417 267 201 200 149 159 84 34 8 1 2 4 15 23 26 4 3 31 26 19
410 464 534 246 162 151 102 73 44 28 7 10 6 16 9 20 21 13 2 4 7 4
231 419 414 97 31 27 11 26 36 26 2 8 8 7 5 4 22 23 18 16 9 0
258 290 68 15 3 10 5 10 8 8 7 8 8 4 11 1 1 12 22 23 12 10
43 96 36 12 0 0 4 17 3 6 10 6 7 7 23 23 6 8 11 18 14 5
46 14 6 10 0 3 12 12 11 7 7 7 8 5 17 22 9 10 7 5 3 1
9 4 0 0 0 0 1 3 21 23 19 10 15 17 7 20 10 9 15 10 8 18
0 0 1 4 0 1 7 2 0 12 20 21 12 4 11 15 10 11 18 12 6 14

GFSNIL_con_mucape_099.txt.gz
CAPE
1388 1447 1224 1185 968 818 483 239 74 105 197 103 331 357 145 109 73 34 51 57 85 40
1229 1194 1168 995 931 994 492 196 76 59 71 234 227 109 103 67 42 50 51 131 37 44
750 751 831 960 1025 628 308 150 100 125 148 202 99 17 14 20 12 39 36 30 49 38
454 436 712 755 606 394 177 178 228 178 88 8 9 0 2 0 0 6 28 25 11 13
164 81 540 558 490 209 270 257 71 30 36 0 7 2 2 0 2 10 4 11 37 17
13 7 322 384 280 429 318 99 50 25 16 3 2 6 3 0 9 20 7 1 0 12
98 161 190 179 353 348 103 85 59 6 8 3 24 0 0 0 0 10 7 12 42 18
64 70 176 149 233 108 103 144 22 5 19 3 20 5 9 11 11 13 6 2 5 40
301 241 191 153 225 179 189 133 22 6 3 2 16 12 13 24 25 30 27 17 7 21
121 153 205 229 221 299 19 31 0 11 9 4 4 15 15 14 8 14 20 2 9 5
115 38 71 156 133 170 13 14 4 15 15 1 4 7 7 19 18 12 15 5 30 17
0 15 13 29 30 24 9 19 17 2 0 1 0 4 0 18 25 24 7 9 11 33
14 1 0 5 11 10 0 0 0 19 0 1 0 7 14 8 26 27 6 9 18 15
0 1 0 0 0 2 0 0 0 0 1 0 2 15 14 15 5 28 18 15 17 14

GFSNIL_con_mucape_102.txt.gz
CAPE
1620 1374 1271 1139 1051 909 855 957 683 534 304 233 354 262 349 165 389 260 125 93 33 9
1746 1417 1299 1146 1097 900 792 775 649 404 172 251 300 163 114 512 335 101 154 78 21 19
1392 1478 1165 1175 1051 899 766 621 528 299 131 83 102 52 268 173 138 84 57 42 24 11
1388 1133 898 966 886 649 520 536 415 144 94 65 56 131 173 94 30 12 16 22 38 19
453 340 316 346 409 437 541 284 99 107 189 73 138 52 16 4 1 1 5 0 18 7
221 123 127 216 252 356 210 111 136 125 118 98 33 3 2 4 5 4 8 6 7 13
38 15 52 96 127 235 176 187 188 117 81 33 34 2 0 0 0 7 1 0 5 5
206 54 14 46 34 110 134 142 70 54 49 23 0 0 4 2 0 4 11 7 0 4
36 7 23 14 61 32 105 60 46 31 22 7 1 9 13 26 13 25 7 0 1 6
12 49 17 88 88 97 84 102 63 22 5 6 7 15 23 16 13 8 10 5 1 3
20 0 89 34 49 59 75 65 125 56 17 8 6 8 21 26 14 7 14 6 7 3
13 8 12 28 0 53 40 59 79 33 18 3 2 3 0 12 11 14 14 14 9 1
0 0 0 0 1 1 21 23 7 10 19 21 11 1 1 4 0 8 11 3 12 14
0 0 3 0 0 0 14 19 19 16 13 1 0 0 1 0 0 0 11 13 11 9

GFSNIL_con_mucape_105.txt.gz
CAPE
1428 1484 1748 1821 1758 1380 879 1195 1709 998 1069 1384 1047 732 430 444 311 214 263 185 177 170
1536 1378 1412 1547 1726 1238 1006 1192 1383 866 992 958 836 264 238 176 200 235 41 108 205 89
1503 1325 1150 1316 1244 1098 1009 905 962 745 707 620 345 190 167 171 185 168 56 247 98 32
1243 1228 1193 959 1227 1252 897 908 719 511 476 383 153 145 122 148 48 245 165 124 186 38
623 699 815 939 865 1034 759 578 485 353 343 216 101 82 73 95 65 81 66 18 32 80
413 439 240 458 478 477 433 374 324 302 204 57 29 84 74 85 107 48 11 5 23 2
105 118 124 87 150 190 207 225 216 104 41 9 27 87 64 30 9 1 2 2 3 3
52 58 84 44 34 87 126 125 122 56 44 2 58 75 33 25 1 1 5 0 3 2
93 110 129 48 30 25 32 75 24 65 23 33 72 45 0 0 4 29 0 16 3 2
69 44 22 27 0 3 14 9 39 21 29 40 32 5 17 29 26 11 12 15 0 2
11 44 38 35 7 45 55 20 40 31 23 13 3 7 39 33 21 10 8 8 2 0
6 2 1 0 0 7 16 11 57 42 11 25 4 5 5 40 4 19 7 16 12 6
0 0 0 0 4 0 0 0 0 40 1 6 1 4 1 0 0 0 0 3 4 14
0 0 0 0 0 0 0 0 15 4 11 14 9 11 4 4 6 4 1 1 0 2

GFSNIL_con_mucape_108.txt.gz
CAPE
0 37 799 1669 1693 1888 1948 1631 1900 2014 1679 1381 1544 1390 1503 1502 1349 1166 1281 629 638 284
230 397 996 2042 1655 1656 2104 1769 1926 1864 1708 1929 1186 979 1121 1271 1194 835 951 748 391 197
523 706 1462 1922 1822 1614 2149 1847 1467 1415 1398 1462 1259 931 868 988 883 521 720 529 417 139
911 1059 1269 1577 1857 1722 1838 1553 1460 1179 1096 1339 784 619 478 462 532 516 579 335 353 94
486 773 673 1013 1294 1315 1373 1660 975 1159 1151 1227 825 431 423 438 345 378 341 200 69 144
119 199 494 649 871 881 772 1187 1052 992 976 1056 509 335 323 234 168 190 173 116 209 143
39 85 144 104 147 309 350 342 446 431 505 595 310 121 76 29 46 74 37 16 2 3
45 88 0 91 77 106 155 149 157 202 264 293 103 61 11 8 5 39 25 1 1 0
25 52 73 75 70 60 68 172 143 172 168 94 59 73 26 3 0 43 8 0 3 2
0 0 49 31 53 92 65 88 122 130 72 57 55 38 10 6 10 48 3 5 1 3
1 1 10 10 1 18 11 25 13 28 56 2 16 2 0 2 34 9 4 14 24 14
0 0 1 4 1 0 0 0 7 0 0 0 0 0 0 15 25 3 15 24 9 11
5 0 0 0 0 0 0 0 0 14 0 20 0 0 4 34 37 32 6 5 2 2
0 0 0 0 0 0 0 0 0 0 0 0 0 0 0 6 1 1 1 0 0 0

GFSNIL_con_mucape_111.txt.gz
CAPE
0 0 0 0 6 808 1938 2093 2354 1577 1698 1907 2010 2314 2140 1995 1408 1451 1616 1619 1510 1160
0 0 0 0 0 300 1606 2030 2495 1846 2008 1767 1985 2104 1964 1990 2149 1542 636 1540 1541 1239
16 32 41 61 57 214 1781 2029 2290 2332 1657 1795 1561 1687 1819 1824 1835 1877 1405 1249 1024 939
63 50 74 273 385 787 1729 1865 1764 1851 1609 1461 1625 1431 2013 1808 1612 1258 893 929 882 828
57 29 52 131 364 915 1299 1597 1746 1705 1429 1281 1525 1531 1649 1619 1468 1015 823 860 772 762
7 35 116 147 31 116 811 1033 1096 1338 1411 1434 1250 1154 1681 1395 1139 680 716 766 714 610
27 53 118 121 135 170 417 526 802 1065 1113 1193 1189 936 1288 903 908 556 470 268 237 122
0 4 1 6 25 96 302 482 556 697 697 707 768 860 923 574 453 210 145 124 79 41
1 0 0 0 10 18 51 107 429 262 434 580 602 689 533 246 147 73 55 59 28 51
6 0 0 3 7 13 58 50 72 168 212 254 312 274 216 91 59 32 17 71 34 10
0 0 1 11 0 0 4 22 27 48 28 3 170 104 13 29 33 37 11 10 10 1
0 0 0 1 0 1 0 0 0 0 9 0 0 27 32 23 28 33 5 0 2 17
0 0 0 0 0 0 0 0 0 0 0 0 0 0 0 0 0 0 0 0 0 0
0 0 0 0 0 0 0 0 0 0 0 0 0 0 0 0 0 0 0 0 0 22

GFSNIL_con_mucape_117.txt.gz
CAPE
0 0 0 0 0 0 0 0 0 0 0 0 221 769 962 902 966 1188 1217 1123 1000 1310
0 0 0 0 0 0 0 0 0 0 0 0 0 496 963 886 712 1410 1497 1340 1193 1025
0 0 0 0 0 0 0 0 0 0 0 0 0 136 913 776 811 1076 1336 1374 1243 1066
0 0 0 0 0 0 0 0 0 0 0 0 0 0 966 991 802 943 1051 1228 1260 1106
0 0 0 0 0 1 10 0 6 4 90 144 0 0 889 1416 1104 964 1098 1192 1135 960
0 0 0 0 0 0 0 4 16 3 14 156 101 18 658 1159 1262 1128 952 1172 1050 992
0 4 0 1 0 0 2 7 1 0 1 34 456 292 687 708 675 704 951 1005 988 1016
9 8 1 1 0 0 4 2 0 0 0 4 11 228 396 285 551 723 865 755 698 1049
0 0 0 1 0 2 1 0 0 0 1 0 0 41 138 207 412 485 671 602 876 963
0 0 0 0 0 0 0 3 1 0 0 5 0 9 72 0 90 208 427 550 611 717
0 0 0 0 0 0 0 0 0 2 0 36 8 30 34 22 295 282 325 329 432 401
0 0 0 0 0 0 0 0 0 0 0 19 0 52 30 67 96 210 266 259 191 286
0 0 0 0 0 0 0 0 0 0 0 0 0 0 11 12 0 80 117 168 84 1
0 0 0 0 0 0 0 0 0 0 0 0 0 0 0 0 0 0 0 0 0 0

GFSNIL_con_mucape_120.txt.gz
CAPE
0 0 0 0 0 0 0 0 0 0 0 0 0 0 0 8 356 811 707 442 427 355
0 0 0 0 0 0 0 0 0 0 0 0 0 0 0 0 0 549 796 488 522 481
0 0 0 0 0 0 0 0 0 0 0 0 0 0 0 0 0 172 699 655 754 654
0 0 0 0 0 0 0 0 0 0 0 0 0 0 0 0 0 5 540 806 857 822
0 0 0 0 0 0 0 0 0 0 0 0 1 4 4 3 0 0 600 766 981 1088
0 0 0 0 0 0 0 0 0 0 0 0 0 0 0 51 3 0 430 773 668 1044
0 0 0 6 9 10 1 0 0 0 0 0 0 0 0 44 10 5 661 915 694 881
0 0 0 0 4 2 0 0 0 0 1 0 0 0 0 24 14 32 530 787 658 730
0 0 0 0 0 0 0 0 0 4 0 0 0 0 0 7 126 197 138 222 242 270
0 0 0 0 0 0 0 0 0 2 0 0 0 1 0 26 44 90 123 163 182 118
0 0 0 0 0 0 0 0 0 0 0 1 1 1 0 27 49 124 21 53 39 152
0 0 0 0 0 0 0 0 0 0 0 0 0 1 0 0 0 1 4 18 67 96
0 0 0 0 0 0 0 0 0 0 0 0 0 0 0 0 0 0 0 11 137 48
0 0 0 0 0 0 0 0 0 0 0 0 0 0 0 0 0 0 0 0 10 40

GFSNIL_con_mucape_123.txt.gz
CAPE
0 0 0 0 0 0 0 0 0 0 0 0 0 0 0 0 0 0 0 319 467 421
0 0 0 0 0 0 0 0 0 0 0 0 0 0 0 0 0 0 0 0 298 475
0 0 0 0 0 0 0 0 0 0 0 0 0 0 0 0 0 0 0 0 23 422
0 0 0 0 0 0 0 0 0 0 0 0 0 0 0 0 0 0 0 0 8 135
0 0 0 0 0 0 0 0 0 0 0 0 0 0 0 0 0 0 1 0 0 12
0 0 0 0 0 0 0 0 0 0 0 0 0 0 0 0 1 0 0 4 5 2
0 0 0 0 0 0 0 0 0 0 0 0 0 0 0 0 0 0 0 0 0 0
0 0 0 0 0 0 0 0 0 0 0 0 0 0 0 0 0 0 0 5 0 4
0 0 0 0 0 0 0 0 0 0 0 0 0 0 0 0 0 0 4 11 13 42
0 0 0 0 0 0 0 0 0 0 1 1 0 0 0 0 0 0 24 12 3 78
0 0 0 0 0 0 0 0 0 0 0 0 0 0 0 0 0 18 28 41 89 53
0 0 0 0 0 0 0 0 0 0 0 0 0 0 0 0 0 0 31 56 61 30
0 0 0 0 0 0 0 0 0 0 0 0 0 0 0 0 0 0 7 20 14 7
0 0 0 0 0 0 0 0 0 0 0 0 0 0 0 0 0 0 0 0 0 0

GFSNIL_con_mucape_126.txt.gz
CAPE
0 0 0 0 0 0 0 0 0 0 0 0 0 0 0 0 0 0 0 0 0 36
0 0 0 0 0 0 0 0 0 0 0 0 0 0 0 0 0 0 0 0 0 0
0 0 0 0 0 0 0 0 0 0 0 0 0 0 0 0 0 0 0 0 0 0
0 0 0 0 0 0 0 0 0 0 0 0 0 0 0 0 0 0 0 0 0 0
0 0 0 0 0 0 0 0 0 0 0 0 0 0 0 0 0 0 0 0 0 0
0 0 0 0 0 0 0 0 0 0 0 0 0 0 0 0 0 0 0 0 0 0
0 0 0 0 0 0 0 0 0 0 0 0 0 0 0 0 0 0 0 0 0 0
0 0 0 0 0 0 0 0 0 0 0 0 0 0 0 0 0 0 0 0 0 0
0 0 0 0 0 0 0 0 0 0 0 0 6 7 3 0 0 4 0 0 1 0
0 0 0 0 0 0 0 0 0 0 0 0 0 0 0 0 0 3 6 3 0 4
0 0 0 0 0 0 0 0 0 0 0 0 0 0 0 0 0 0 1 0 0 1
0 0 0 0 0 0 0 0 0 0 0 0 0 0 0 0 0 0 0 0 0 0
0 0 0 0 0 0 0 0 0 0 0 0 0 0 0 0 0 0 0 0 0 0
0 0 0 0 0 0 0 0 0 0 0 0 0 0 0 0 0 1 3 0 0 0